Catania, Italy

1:28 PM CEST on April 25, 2017 (GMT +0200)
Catania

Weather History for LICC - March, 2014

Change the Weather History Date:

Sunday, March 23, 2014

  Actual Average Record
Temperature  
Mean Temperature 58 °F -  
Max Temperature 70 °F 68 °F 73 °F (2001)
Min Temperature 47 °F 46 °F 30 °F (1998)
Degree Days  
Heating Degree Days 6    
Growing Degree Days 8 (Base 50)    
Moisture  
Dew Point 44 °F    
Average Humidity 62    
Maximum Humidity 82    
Minimum Humidity 23    
Precipitation  
Precipitation 0.00 in 0.05 in - ()
Sea Level Pressure  
Sea Level Pressure 29.95 in    
Wind  
Wind Speed 8 mph ()    
Max Wind Speed 14 mph    
Max Gust Speed -    
Visibility 6.2 miles    
Events      
Averages and records for this station are not official NWS values.
T = Trace of Precipitation, MM = Missing Value Source: Averaged Metar Reports

Daily Weather History Graph

Daily Weather History Graph

Search for Another Location

Airport or City:

Trip Planner

Search our weather history database for the weather conditions in past years. The results will help you decide how hot, cold, wet, or windy it might be!

Date:

Astronomy

Mar. 23, 2014 Rise Set
Actual Time 5:59 AM CET 6:14 PM CET
Civil Twilight 5:33 AM CET 6:40 PM CET
Nautical Twilight 5:02 AM CET 7:10 PM CET
Astronomical Twilight 4:31 AM CET 7:42 PM CET
Moon 12:08 AM CET (3/23) 10:28 AM CET (3/23)
Length of Visible Light 13h 07m
Length of Day
12h 14m
Waning Gibbous, 57% of the Moon is Illuminated
Mar 23
Waning Gibbous
Mar 24
Last Quarter
Mar 30
New
Apr 7
First Quarter
Apr 15
Full

Hourly Weather History & Observations

Time (CET) Temp. Dew Point Humidity Pressure Visibility Wind Dir Wind Speed Gust Speed Precip Events Conditions
12:20 AM 51.8 °F 44.6 °F 76% 30.01 in - West 10.4 mph - N/A   Clear
12:50 AM 51.8 °F 44.6 °F 76% 30.01 in - West 9.2 mph - N/A   Clear
1:00 AM 52 °F 45 °F 70% 30.03 in 6 mi West 9.2 mph - -  
1:20 AM 51.8 °F 44.6 °F 76% 30.01 in - West 10.4 mph - N/A   Clear
1:50 AM 50.0 °F 44.6 °F 82% 30.01 in - West 9.2 mph - N/A   Clear
2:20 AM 50.0 °F 44.6 °F 82% 29.98 in - West 9.2 mph - N/A   Clear
2:50 AM 50.0 °F 44.6 °F 82% 29.98 in - West 9.2 mph - N/A   Clear
3:20 AM 50.0 °F 44.6 °F 82% 29.98 in - West 9.2 mph - N/A   Clear
3:50 AM 50.0 °F 42.8 °F 76% 29.98 in - West 10.4 mph - N/A   Clear
4:00 AM 50 °F 43 °F 69% 29.98 in 6 mi West 8.1 mph - -  
4:50 AM 48.2 °F 42.8 °F 82% 29.98 in - WSW 9.2 mph - N/A   Clear
5:20 AM 48.2 °F 42.8 °F 82% 29.98 in - WSW 8.1 mph - N/A   Clear
5:50 AM 50.0 °F 42.8 °F 76% 29.98 in 6.2 mi West 11.5 mph - N/A   Partly Cloudy
6:20 AM 50.0 °F 41.0 °F 71% 29.95 in 6.2 mi West 9.2 mph - N/A   Scattered Clouds
6:50 AM 51.8 °F 42.8 °F 71% 29.98 in 6.2 mi WSW 9.2 mph - N/A   Scattered Clouds
7:00 AM 51 °F 43 °F 66% 29.98 in 6 mi SW 9.2 mph - -   Partly Cloudy
7:20 AM 50.0 °F 42.8 °F 76% 29.98 in 6.2 mi SW 8.1 mph - N/A   Mostly Cloudy
7:50 AM 50.0 °F 42.8 °F 76% 29.98 in 6.2 mi SW 8.1 mph - N/A   Mostly Cloudy
8:20 AM 51.8 °F 44.6 °F 76% 29.98 in 6.2 mi SW 9.2 mph - N/A   Mostly Cloudy
8:50 AM 57.2 °F 46.4 °F 67% 29.98 in 6.2 mi WSW 9.2 mph - N/A   Scattered Clouds
9:20 AM 62.6 °F 42.8 °F 48% 29.98 in 6.2 mi WSW 11.5 mph - N/A   Scattered Clouds
9:50 AM 60.8 °F 42.8 °F 52% 29.98 in 6.2 mi West 11.5 mph - N/A   Scattered Clouds
10:00 AM 63 °F 42 °F 34% 29.99 in 6 mi West 11.5 mph - -   Partly Cloudy
10:20 AM 64.4 °F 41.0 °F 42% 29.98 in 6.2 mi West 11.5 mph - N/A   Scattered Clouds
10:50 AM 66.2 °F 37.4 °F 35% 29.98 in 6.2 mi West 13.8 mph - N/A   Scattered Clouds
11:20 AM 66.2 °F 42.8 °F 43% 29.95 in 6.2 mi West 10.4 mph - N/A   Scattered Clouds
11:50 AM 68.0 °F 41.0 °F 37% 29.95 in 6.2 mi WSW 9.2 mph - N/A   Scattered Clouds
12:20 PM 68.0 °F 35.6 °F 30% 29.92 in 6.2 mi WSW 10.4 mph - N/A   Mostly Cloudy
12:50 PM 69.8 °F 39.2 °F 33% 29.92 in 6.2 mi WSW 9.2 mph - N/A   Mostly Cloudy
1:00 PM 70 °F 40 °F 23% 29.94 in 6 mi West 8.1 mph - -   Mostly Cloudy
1:20 PM 69.8 °F 41.0 °F 35% 29.92 in 6.2 mi West 6.9 mph - N/A   Mostly Cloudy
1:50 PM 69.8 °F 39.2 °F 33% 29.92 in 6.2 mi WSW 8.1 mph - N/A   Mostly Cloudy
2:20 PM 68.0 °F 41.0 °F 37% 29.92 in 6.2 mi WSW 9.2 mph - N/A   Mostly Cloudy
2:50 PM 66.2 °F 44.6 °F 46% 29.92 in 6.2 mi WSW 13.8 mph - N/A   Mostly Cloudy
3:20 PM 66.2 °F 44.6 °F 46% 29.92 in 6.2 mi West 12.7 mph - N/A   Mostly Cloudy
3:50 PM 64.4 °F 44.6 °F 49% 29.92 in 6.2 mi WSW 10.4 mph - N/A   Mostly Cloudy
4:00 PM 64 °F 45 °F 38% 29.93 in 6 mi WSW 10.4 mph - -   Mostly Cloudy
4:20 PM 62.6 °F 46.4 °F 55% 29.92 in 6.2 mi West 10.4 mph - N/A   Mostly Cloudy
4:50 PM 62.6 °F 44.6 °F 52% 29.92 in 6.2 mi West 10.4 mph - N/A   Mostly Cloudy
5:20 PM 60.8 °F 48.2 °F 63% 29.92 in 6.2 mi SW 8.1 mph - N/A   Mostly Cloudy
5:50 PM 60.8 °F 48.2 °F 63% 29.89 in 6.2 mi West 5.8 mph - N/A   Mostly Cloudy
6:20 PM 59.0 °F 48.2 °F 67% 29.89 in 6.2 mi SW 8.1 mph - N/A   Scattered Clouds
6:50 PM 57.2 °F 48.2 °F 72% 29.92 in 6.2 mi WSW 6.9 mph - N/A   Scattered Clouds
7:00 PM 57 °F 48 °F 64% 29.93 in 6 mi West 4.6 mph - -   Partly Cloudy
7:20 PM 57.2 °F 48.2 °F 72% 29.92 in 6.2 mi NW 4.6 mph - N/A   Scattered Clouds
7:50 PM 59.0 °F 44.6 °F 59% 29.92 in 6.2 mi NW 3.5 mph - N/A   Mostly Cloudy
8:20 PM 55.4 °F 44.6 °F 67% 29.95 in 6.2 mi WSW 5.8 mph - N/A   Scattered Clouds
8:50 PM 55.4 °F 44.6 °F 67% 29.95 in 6.2 mi West 6.9 mph - N/A   Scattered Clouds
9:20 PM 55.4 °F 44.6 °F 67% 29.95 in 6.2 mi WSW 6.9 mph - N/A   Scattered Clouds
9:50 PM 53.6 °F 46.4 °F 77% 29.95 in 6.2 mi WSW 8.1 mph - N/A   Scattered Clouds
10:00 PM 54 °F 46 °F 67% 29.95 in 6 mi WSW 8.1 mph - -   Partly Cloudy
10:20 PM 53.6 °F 46.4 °F 77% 29.95 in 6.2 mi WSW 5.8 mph - N/A   Scattered Clouds
10:50 PM 53.6 °F 46.4 °F 77% 29.92 in 6.2 mi SW 5.8 mph - N/A   Scattered Clouds
11:20 PM 53.6 °F 46.4 °F 77% 29.92 in 6.2 mi WSW 5.8 mph - N/A   Scattered Clouds
11:50 PM 53.6 °F 46.4 °F 77% 29.92 in 6.2 mi WSW 5.8 mph - N/A   Scattered Clouds